This demonstration page uses our WeatherBlox Daily Observations layout. Learn more.

Left ArrowRight Arrow

44.89941, -97.11507

Hourly Observations for May 4, 2019

Temp ( °F °C ) Dew Point ( °F °C ) Humidity (%) Winds ( mph kmh ) Pressure ( in mb ) Visibility ( mi km ) Precip ( " mm )
12:53 am 00:53 Clear 40 4.4 37 2.8 89 89 Calm 29.96 1015 10 16 0.00 0.00
1:53 am 01:53 Clear 38 3.3 37 2.8 97 97 Calm 29.96 1015 10 16 0.00 0.00
2:53 am 02:53 Clear 34 1.1 33 0.6 97 97 SSE 5 7 29.96 1015 10 16 0.00 0.00
3:53 am 03:53 Clear 37 2.8 34 1.1 89 89 SE 5 7 29.94 1014 10 16 0.00 0.00
4:53 am 04:53 Clear 36 2.2 33 0.6 89 89 S 6 9 29.94 1014 10 16 0.00 0.00
5:53 am 05:53 Clear 35 1.7 33 0.6 93 93 SSE 6 9 29.93 1014 10 16 0.00 0.00
6:53 am 06:53 Sunny 36 2.2 33 0.6 89 89 SSE 7 11 29.94 1014 10 16 0.00 0.00
7:53 am 07:53 Sunny 44 6.7 39 3.9 83 83 SSE 7 11 29.95 1014 10 16 0.00 0.00
8:53 am 08:53 Sunny 52 11.1 43 6.1 72 72 SSW 10 17 29.95 1014 10 16 0.00 0.00
9:53 am 09:53 Sunny 58 14.4 43 6.1 58 58 SSW 14 22 29.94 1014 10 16 0.00 0.00
10:53 am 10:53 Sunny 62 16.7 40 4.4 44 44 SSW 18 30 29.92 1013 10 16 0.00 0.00
11:53 am 11:53 Sunny 65 18.3 39 3.9 39 39 SW 17 28 29.90 1013 10 16 0.00 0.00
12:53 pm 12:53 Sunny 66 18.9 39 3.9 37 37 WSW 16 26 29.89 1012 10 16 0.00 0.00
1:53 pm 13:53 Sunny 68 20 38 3.3 33 33 SW 13 20 29.86 1011 10 16 0.00 0.00
2:53 pm 14:53 Mostly Sunny 68 20 36 2.2 31 31 SSW 10 17 29.85 1011 10 16 0.00 0.00
3:53 pm 15:53 Sunny 68 20 35 1.7 30 30 SW 9 15 29.81 1010 10 16 0.00 0.00
4:53 pm 16:53 Partly Cloudy 67 19.4 35 1.7 31 31 SSW 13 20 29.80 1009 10 16 0.00 0.00
5:53 pm 17:53 Mostly Sunny 67 19.4 37 2.8 33 33 SW 12 19 29.80 1009 10 16 0.00 0.00
6:53 pm 18:53 Partly Cloudy 65 18.3 39 3.9 39 39 SSW 12 19 29.78 1009 10 16 0.00 0.00
7:26 pm 19:26 Cloudy with Light Rain 56 13.3 46 7.8 70 70 N 13 20 29.79 1009 7 11 0.01 0.25
7:53 pm 19:53 Mostly Cloudy 57 13.9 47 8.3 69 69 E 6 9 29.80 1009 10 16 0.01 0.25
8:53 pm 20:53 Partly Cloudy 56 13.3 46 7.8 70 70 SE 5 7 29.80 1009 10 16 0.00 0.03
9:53 pm 21:53 Partly Cloudy 50 10 45 7.2 83 83 NE 10 17 29.83 1010 10 16 0.00 0.00
10:53 pm 22:53 Clear 47 8.3 39 3.9 74 74 NNE 12 19 29.83 1010 10 16 0.00 0.00
11:53 pm 23:53 Partly Cloudy 45 7.2 38 3.3 77 77 NE 7 11 29.84 1011 10 16 0.00 0.00

Powered by AerisWeather